Location: Unspecified
(44.4377°N, 88.0525°W)
Time: 07:00:51
(UTC-05:00)

Cosmos 1674 - Visible Passes

Search period start: 28 March 2017 00:00
Search period end: 07 April 2017 00:00
Orbit: 498 x 524 km, 82.5° (Epoch: 26 March)

Date Brightness Start Highest point End Pass type
(mag) Time Alt. Az. Time Alt. Az. Time Alt. Az.
28 Mar 2.6 20:27:43 10° N 20:31:32 88° W 20:35:20 10° S visible
29 Mar 2.6 20:11:18 10° N 20:15:06 73° E 20:18:54 10° SSE visible
30 Mar 2.8 19:54:55 10° N 19:58:39 56° E 20:02:24 10° SSE visible
30 Mar 6.1 21:33:04 10° WNW 21:33:44 10° W 21:34:25 10° W visible
31 Mar 5.8 21:15:35 10° WNW 21:17:24 13° W 21:19:14 10° WSW visible
01 Apr 5.7 20:58:37 10° NW 21:01:04 16° W 21:03:30 10° SW visible
02 Apr 5.5 20:41:51 10° NW 20:44:42 20° W 20:47:34 10° SW visible
03 Apr 5.2 20:25:09 10° NW 20:28:20 25° W 20:31:30 10° SW visible
04 Apr 4.8 20:08:32 10° NNW 20:11:56 31° W 20:15:22 10° SSW visible
05 Apr 4.3 19:51:57 10° NNW 19:55:33 40° W 19:59:09 10° SSW visible
